DMSP 5D-2 F13 DEB, 42323

Orbit data source: Space-Track

DMSP 5D-2 F13 DEB, 42323 is space debris in SSO originally from a launch on Fri, 24 Mar 1995 UTC launched from the Air Force Western Test Range (AFWTR). Debris objects in space refer to the collection of defunct objects orbiting the Earth. Examples of debris include non-operational satellites, rocket bodies, and fragments generated from explosions, collisions, or faulty payload assembly.

Loading next visibility...
DMSP 5D-2 F13 DEB details
Identifier
42323, 1995-015JR
Orbit
SSO
Last TLE update17 hours ago
Origin
Flag of USUSAF SMC (US)
ManufacturerUnknown
MissionSpacecraft
Bus & MotorUnknown
MassUnknown
Launch date (UTC)
1995-03-24 (30 years ago)
Launch vehicleUnknown
Launch site
Air Force Western Test Range (AFWTR)
Object type
Payload
Rocket body
Debris
Shape & HBRUnknown
Radar Cross SectionSmall (<0.1 m²)

Expand to show TLE details & history

TLE from 17 hours ago
0 DMSP 5D-2 F13 DEB
1 42323U 95015JR  24361.00509565  .00001038  00000-0  53918-3 0  9991
2 42323  98.8400   8.9499 0003598 114.3252 245.8298 14.16946547476458
Epoch: 2024-12-26T00:07Z
Definitive object data (Epoch: 2024-12-26T00:07:20.264Z)
Latitude-0.00004°
Longitude-87.87523°
Altitude839.668 km
Speed7.432 km/s
True Right ascension00h 35m 47s
True Declination0° 00' 00"
Sunlit
Object was in daylight at TLE epoch
Visualization TLE readout
Latitude-59.59534°
Longitude-71.89944°
Altitude861.236 km
Speed7.42 km/s
Apparent Right ascension03h 05m 34s
Apparent Declination-51° 41' 56"
Sunlit
Object is in daylight
Visualization observer readout
Local Sidereal Time16:09:15
Azimuth142.235° SSE
Elevation-73.882°
Doppler factor1
Orbital elements
Apogee altitude835.461 km
Perigee altitude830.272 km
Semi-major axis7,211.004 km
Eccentricity0.0003598
Inclination98.84°
RAAN8.9499°
Arg. of periapsis114.3252°
True anomaly245.79219°
Mean anomaly245.8298°
Eccentric anomaly245.811°
Mean motion3.54446 °/min
BSTAR0.00053918
Orbital period101.57 mins
Loading maneuver chart data...

DMSP 5D-2 F13 DEB Visibility forecast

Observer location: undefined°, undefined

Span
Click to sort rows by Start time (UTC) header in descending order
Start Az.
Max El. time (UTC)
Max El. Az.
Max El.
End time (UTC)
End Az.
8 mins2024-12-26 23:59:01.464Z129.347° SE2024-12-27 00:03:01.464Z68.939° E31.103°2024-12-27 00:07:01.464Z7.81° NNE
7 mins2024-12-27 01:40:01.464Z214.853° SW2024-12-27 01:43:01.464Z256.192° W24.57°2024-12-27 01:47:01.464Z315.057° NNW
4 mins2024-12-27 12:21:01.464Z70.601° E2024-12-27 12:23:01.464Z95.849° ESE15.07°2024-12-27 12:25:01.464Z119.751° SE
8 mins2024-12-27 14:00:01.464Z2.334° NNE2024-12-27 14:03:01.464Z314.044° NW41.154°2024-12-27 14:08:01.464Z208.862° SW
|